Location: *
(2.5500°S, 65.9667°W)
Time: 11:48:01
(UTC+00:00)

CZ-4B R/B - Pass Details

Date: 26 October 2021
Orbit: 381 x 445 km, 97.6° (Epoch: 29 November)

Event Time Altitude Azimuth Distance (km) Brightness Sun altitude
Exits shadow 23:12:39 13° 17° (NNE) 1,383 3.6 -15.2°
Maximum altitude 23:15:34 73° 101° (E) 460 1.2 -15.9°
Drops below altitude 10° 23:18:51 10° 186° (S) 1,535 4.3 -16.7°
Sets 23:20:51 0° 188° (S) 2,394 5.4 -17.2°
